View from above orbital plane
|
View from above satellite
|
Ground track
|
The orbit data is extracted from the following two-line orbital elements,
1 40014U 14033E 22178.56416415 .00002551 00000-0 22658-3 0 9991
2 40014 98.1417 177.3820 0031299 7.2832 352.8824 14.96758239437656
Epoch (UTC): | 27 June 2022 13:32:23 |
Eccentricity: | 0.0031299 |
inclination: | 98.1417° |
perigee height: | 555 km |
apogee height: | 598 km |
right ascension of ascending node: | 177.3820° |
argument of perigee: | 7.2832° |
revolutions per day: | 14.96758239 |
mean anomaly at epoch: | 352.8824° |
orbit number at epoch: | 43765 |
The dashed part of the orbit path shows where the satellite is in the earth's shadow,
|
|